+ View the NASA Portal
+ Center for Near-Earth Object Studies
IMPORTANT:
The SSD Announcement email list is now available. Major changes are coming in the near future, including possible hostname and/or URL changes. To be notified of such changes, subscribe to this email list.
Please visit
this page
for more details.
Don't show this message again
JPL Small-Body Database Browser
Search:
[
help
]
344072 (1997 CY1)
Classification:
Mars-crossing Asteroid
SPK-ID:
2344072
[
Ephemeris
|
Orbit Diagram
|
Orbital Elements
|
Mission Design
|
Physical Parameters
|
Discovery Circumstances
|
Close-Approach Data
]
[ show orbit diagram ]
Orbital Elements at Epoch 2458600.5 (2019-Apr-27.0) TDB
Reference:
JPL 6
(heliocentric ecliptic J2000)
Element
Value
Uncertainty (1-sigma)
Units
e
.2831994885354528
1.6071e-07
a
1.817034200319073
9.0539e-09
au
q
1.302451044137286
2.9509e-07
au
i
24.33937008059573
2.1591e-05
deg
node
332.5299469032804
2.0538e-05
deg
peri
316.983930705243
3.1125e-05
deg
M
260.5769394354441
2.6311e-05
deg
t
p
2458847.574375688031
(2019-Dec-30.07437569)
6.4757e-05
TDB
period
894.6292212553412
2.45
6.6866e-06
1.831e-08
d
yr
n
.40240134286565
3.0076e-09
deg/d
Q
2.33161735650086
1.1618e-08
au
Orbit Determination Parameters
# obs. used (total)
125
data-arc span
8041 days (22.02 yr)
first obs. used
1997-02-02
last obs. used
2019-02-08
planetary ephem.
DE431
SB-pert. ephem.
SB431-N16
condition code
0
norm. resid. RMS
.6009
source
ORB
producer
Otto Matic
solution date
2019-Jul-13 07:41:10
Additional Information
Earth MOID
= .346026 au
Jupiter MOID
= 3.04894 au
T_jup
= 3.896
[ show covariance matrix ]
[
Ephemeris
|
Orbit Diagram
|
Orbital Elements
|
Mission Design
|
Physical Parameters
|
Discovery Circumstances
|
Close-Approach Data
]
Physical Parameter Table
Parameter
Symbol
Value
Units
Sigma
Reference
Notes
absolute magnitude
H
18.0
n/a
MPO242125
344072 (1997 CY1)
Discovered 1997-Feb-02 by Spacewatch at Kitt Peak
Reference:
20121128/Numbers.arc
Last Updated:
2012-12-03
[ show close-approach data ]
Alternate Designations
1997 CY1
= 2000 RL60
[
Ephemeris
|
Orbit Diagram
|
Orbital Elements
|
Mission Design
|
Physical Parameters
|
Discovery Circumstances
|
Close-Approach Data
]
2019-Dec-15 20:03 UT
(server date/time)
Site Manager:
Ryan S. Park
Webmaster
:
Alan B. Chamberlin